Location: Krakow
(50.0830°N, 19.9170°E)
Time: 04:13:12
(UTC+02:00)

Tiros 1 - Pass Details

Date: 08 February 2023
Orbit: 627 x 662 km, 48.4° (Epoch: 25 March)

Event Time Altitude Azimuth Distance (km) Brightness Sun altitude
Rises 21:21:03 0° 203° (SSW) 2,898 - -43.1°
Reaches altitude 10° 21:23:57 10° 185° (S) 1,994 - -43.5°
Maximum altitude 21:27:04 18° 142° (SE) 1,531 - -43.9°
Drops below altitude 10° 21:30:11 10° 99° (E) 2,004 - -44.3°
Sets 21:33:06 0° 80° (E) 2,919 - -44.6°
